"Pseudo-MPEC" for C0EXZ05

Created 2022 Dec 15 14:22:04 UT using Find_Orb

Click here for an explanation of pseudo-MPECs

 
 Astrometry: 
     C0EXZ05*mC2022 11 28MDUf@;S.\l-FuF=G4ZY.kb8OE50!Rn(P#Hp!YTmfTG=4Rvvw84']V00
     C0EXZ05 mC2022 11 28#78U_@,bhVZCihjVBkLB/i1a@-9Xv@pyW./p);2KKlI;Z9KV+wxnV00
     C0EXZ05 mC2022 11 28@cVAstrometry:KIsGiCFQUp4J(:PNcE.pdaGVgZf\+5U,$x,X)NV00
     C0EXZ05 mC2022 11 28rfV2p*u;lQe0m2IT`i6E$EQ\w^nZBR@Rd7\9,(Er8l^;l%^\J'VRV00
     C0EXZ05  C2022 11 28.28391904 28 15.133+29 27 15.49   ~BS7b 22.1 GVNEOCPH01
     C0EXZ05 mC2022 11 28X:F9nhk4@0%V#f^redacted;^PnvHci'GclickK,c-b;eV;$J)J8V00
     C0EXZ05 mC2022 11 28#437^K:v!.rJr;Q?A7](yRmUnLYQPr/djB!NnoJI$vMP8YI3p,;JV00
     C0EXZ05 mC2022 11 289b%a4_8d1G(!D*)lyShere;W)C-A1TL=ov02qF;0e1G'/Qd!+=qFV00
     C0EXZ05  C2022 11 28.29171104 28 13.989+29 27 08.28   ~BS7b 22.2 GVNEOCPH01
     C0EXZ05 mC2022 11 28n$Bp5PB,?=2u42jxforQpdyQs*;O52,2explanationn0.E_:Q_3V00
     C0EXZ05  C2022 11 28.29861304 28 12.980+29 27 01.96   ~BS7b 21.9 GVNEOCPH01
     C0EXZ05  C2022 11 28.30469804 28 12.080+29 26 56.28   ~BS7b 22.5 GVNEOCPH01
     C0EXZ05 KC2022 11 29.30095304 25 51.400+29 11 24.90   ~BT8b 22.51GVNEOCPV06
     C0EXZ05 KC2022 11 29.31286504 25 49.680+29 11 13.30   ~BT8b 22.42GVNEOCPV06
     C0EXZ05 KC2022 11 29.32477804 25 47.940+29 11 02.70   ~BT8b 21.63GVNEOCPV06
     C0EXZ05 KC2022 11 30.43669 04 23 12.87 +28 53 29.4    ~BUBb       oNEOCP291
     C0EXZ05 KC2022 11 30.44865 04 23 11.11 +28 53 20.3    ~BUBb       oNEOCP291
     C0EXZ05 KC2022 11 30.46060 04 23 09.50 +28 53 08.1    ~BUBb 22.9 RoNEOCP291
     C0EXZ05 KC2022 12 15.33620 03 54 04.13 +24 58 37.2    ~CF9q       VNEOCP291
     C0EXZ05 KC2022 12 15.35870 03 54 01.94 +24 58 16.8    ~CF9q 23.9 GVNEOCP291
     C0EXZ05 KC2022 12 15.38123 03 53 59.79 +24 57 56.1    ~CF9q       VNEOCP291

Station data:
(291) LPL/Spacewatch II  (N31.961669 W111.599905)  US/Arizona.  Observers J.
   V. Scotti, R. S. McMillan. 1.8-m f/2.7 reflector + CCD.
(H01) Magdalena Ridge Observatory, Socorro  (N33.984833 W107.189333)  US/New
   Mexico.  Observers W. H. Ryan, E. V. Ryan. Measurer W. H. Ryan. 2.4-m
   f/8.9 reflector + CCD.
(V00) Kitt Peak-Bok  (N31.963125 W111.600190)  US/Arizona.  Observers T. A.
   Pruyne, B. M. Africano, E. J. Christensen, G. A. Farneth, D. C. Fuls, A.
   R. Gibbs, A. D. Grauer, H. Gröller, J. A. Johnson, R. A. Kowalski, S. M.
   Larson, G. J. Leonard, D. Rankin, R. L. Seaman, F. C. Shelly, K. W.
   Wierzchoś. 2.25-m reflector + CCD.
(V06) Catalina Sky Survey-Kuiper  (N32.416844 W110.732550)  US/Arizona.
   Observers T. A. Pruyne, B. M. Africano, E. J. Christensen, G. A. Farneth,
   D. C. Fuls, A. R. Gibbs, A. D. Grauer, H. Gröller, J. A. Johnson, R. A.
   Kowalski, S. M. Larson, G. J. Leonard, D. Rankin, R. L. Seaman, F. C.
   Shelly, K. W. Wierzchoś. 1.55-m reflector + CCD.

Orbital elements:  C0EXZ05
   Perihelion 2022 Jun 6.32958 +/- 0.112 TT =  7:54:36 (JD 2459736.82958)
Epoch 2022 Dec 15.0 TT = JDT 2459928.5   Earth MOID: 0.2426   Ve: 0.0375
M 108.18685705 +/- 0.24             (J2000 ecliptic)             AutoNEOCP
n   0.56444212 +/- 0.000966         Peri.   19.34699 +/- 0.030
a   1.45007268 +/- 0.00165          Node   260.29971 +/- 0.056
e   0.5368752 +/- 0.00213           Incl.   16.29216 +/- 0.09
P   1.75/637.79d           H 21.08  G  0.15   U  8.1
q 0.67156451 +/- 0.00232    Q 2.22858084 +/- 0.00562
From 21 observations 2022 Nov. 28-Dec. 15; mean residual 0".39
Residuals in arcseconds: 
221128 V00  .14+  .14-    221128 V00  .40-  .42-    221129 V06  .28-  .54+    
221128 V00  .00   .25+    221128 H01  .05+  .02-    221130 291  .45+  1.6-    
221128 V00  .00   .21+    221128 V00  .25-  .28-    221130 291  .60-  .90+    
221128 V00  .23+  .58+    221128 H01  .03+  .08+    221130 291  .26+  .28+    
221128 H01  .12+  .05-    221128 H01  .11-  .07+    221215 291  .24+  .04+    
221128 V00  .09+  .09-    221129 V06  .04+  .31+    221215 291  .15-  .08+    
221128 V00  .24+  .85-    221129 V06  .01+  .09-    221215 291  .08-  .12-    

Ephemerides (geocentric):
Date (UTC) HH   RA             Dec           delta  r     elong  mag " sig PA
---- --------  ------------   ------------  ------ ------ -----  --- --------
2022 12 15 14  03 53 41.432   +24 54 57.62  1.0193 1.9663 157.9 23.3 .109 110
2022 12 15 15  03 53 37.577   +24 54 20.41  1.0197 1.9665 157.8 23.3 .121 109
2022 12 15 16  03 53 33.729   +24 53 43.23  1.0201 1.9667 157.7 23.3 .133 108
2022 12 15 17  03 53 29.886   +24 53 06.07  1.0205 1.9668 157.7 23.3 .145 108
2022 12 15 18  03 53 26.050   +24 52 28.93  1.0208 1.9670 157.6 23.3 .157 107
2022 12 15 19  03 53 22.219   +24 51 51.81  1.0212 1.9672 157.6 23.3 .169 106
2022 12 15 20  03 53 18.395   +24 51 14.71  1.0216 1.9674 157.5 23.3 .181 106
2022 12 15 21  03 53 14.577   +24 50 37.64  1.0220 1.9675 157.5 23.3 .194 105
2022 12 15 22  03 53 10.764   +24 50 00.59  1.0223 1.9677 157.4 23.3 .206 105
2022 12 15 23  03 53 06.958   +24 49 23.56  1.0227 1.9679 157.3 23.3 .219 104
2022 12 16 00  03 53 03.158   +24 48 46.55  1.0231 1.9681 157.3 23.3 .231 104
2022 12 16 01  03 52 59.364   +24 48 09.56  1.0235 1.9683 157.2 23.3 .244 104
2022 12 16 02  03 52 55.576   +24 47 32.60  1.0239 1.9684 157.2 23.3 .257 103
2022 12 16 03  03 52 51.794   +24 46 55.65  1.0243 1.9686 157.1 23.4 .270 103
2022 12 16 04  03 52 48.018   +24 46 18.74  1.0246 1.9688 157.1 23.4 .283 103
2022 12 16 05  03 52 44.249   +24 45 41.84  1.0250 1.9690 157.0 23.4 .296 103
2022 12 16 06  03 52 40.485   +24 45 04.96  1.0254 1.9691 157.0 23.4 .310 102
2022 12 16 07  03 52 36.727   +24 44 28.11  1.0258 1.9693 156.9 23.4 .323 102
2022 12 16 08  03 52 32.976   +24 43 51.28  1.0262 1.9695 156.8 23.4 .336 102
2022 12 16 09  03 52 29.230   +24 43 14.48  1.0265 1.9697 156.8 23.4 .350 102
2022 12 16 10  03 52 25.491   +24 42 37.69  1.0269 1.9698 156.7 23.4 .363 102
2022 12 16 11  03 52 21.758   +24 42 00.93  1.0273 1.9700 156.7 23.4 .377 101
2022 12 16 12  03 52 18.030   +24 41 24.19  1.0277 1.9702 156.6 23.4 .391 101
2022 12 16 13  03 52 14.309   +24 40 47.48  1.0281 1.9704 156.6 23.4 .405 101
2022 12 16 14  03 52 10.594   +24 40 10.78  1.0285 1.9705 156.5 23.4 .419 101
2022 12 16 15  03 52 06.885   +24 39 34.12  1.0289 1.9707 156.4 23.4 .433 101
2022 12 16 16  03 52 03.182   +24 38 57.47  1.0292 1.9709 156.4 23.4 .447 101
2022 12 16 17  03 51 59.486   +24 38 20.85  1.0296 1.9711 156.3 23.4 .461 100
2022 12 16 18  03 51 55.795   +24 37 44.25  1.0300 1.9712 156.3 23.4 .476 100
2022 12 16 19  03 51 52.110   +24 37 07.67  1.0304 1.9714 156.2 23.4 .490 100
2022 12 16 20  03 51 48.432   +24 36 31.12  1.0308 1.9716 156.2 23.4 .505 100
2022 12 16 21  03 51 44.759   +24 35 54.59  1.0312 1.9718 156.1 23.4 .519 100
2022 12 16 22  03 51 41.093   +24 35 18.08  1.0316 1.9719 156.1 23.4 .534 100
2022 12 16 23  03 51 37.433   +24 34 41.60  1.0320 1.9721 156.0 23.4 .549 100
2022 12 17 00  03 51 33.778   +24 34 05.14  1.0324 1.9723 155.9 23.4 .564 100
2022 12 17 01  03 51 30.130   +24 33 28.70  1.0327 1.9725 155.9 23.4 .579  99
2022 12 17 02  03 51 26.488   +24 32 52.29  1.0331 1.9726 155.8 23.4 .594  99
2022 12 17 03  03 51 22.852   +24 32 15.90  1.0335 1.9728 155.8 23.4 .609  99
2022 12 17 04  03 51 19.222   +24 31 39.54  1.0339 1.9730 155.7 23.4 .624  99
2022 12 17 05  03 51 15.599   +24 31 03.20  1.0343 1.9731 155.7 23.4 .639  99
2022 12 17 06  03 51 11.981   +24 30 26.88  1.0347 1.9733 155.6 23.4 .655  99
2022 12 17 07  03 51 08.370   +24 29 50.59  1.0351 1.9735 155.6 23.4 .670  99
2022 12 17 08  03 51 04.764   +24 29 14.32  1.0355 1.9737 155.5 23.4 .686  99
2022 12 17 09  03 51 01.165   +24 28 38.07  1.0359 1.9738 155.4 23.4 .702  99
2022 12 17 10  03 50 57.572   +24 28 01.85  1.0363 1.9740 155.4 23.4 .718  99
2022 12 17 11  03 50 53.984   +24 27 25.65  1.0367 1.9742 155.3 23.4 .734  98
2022 12 17 12  03 50 50.403   +24 26 49.48  1.0371 1.9744 155.3 23.4 .750  98
2022 12 17 13  03 50 46.828   +24 26 13.33  1.0375 1.9745 155.2 23.4 .766  98